"Time","Temp","Dewpoint","Humidity","Pressure","Direction","Speed","Gust","Precip","PrecipRate"
"00:04:58","47.6","46.5","96","30.19","174","1.3","3.5","0.00","0.00"
"00:09:58","47.6","46.5","96","30.19","174","1.7","3.6","0.00","0.00"
"00:14:57","47.6","46.5","96","30.19","174","0.6","3.6","0.00","0.00"
"00:19:55","47.6","46.5","96","30.19","174","1.1","3.6","0.00","0.00"
"00:24:59","47.6","46.5","96","30.19","174","0.2","2.4","0.00","0.00"
"00:29:58","47.6","46.5","96","30.19","174","0.7","2.4","0.00","0.00"
"00:34:59","47.6","46.5","96","30.19","174","0","1.2","0.00","0.00"
"00:39:57","47.6","46.5","96","30.19","174","1.3","3.6","0.00","0.00"
"00:44:56","47.7","46.6","96","30.19","171","2.7","4.8","0.00","0.00"
"00:49:58","47.7","46.6","96","30.19","165","1.7","4.8","0.00","0.00"
"00:54:56","47.8","46.7","96","30.19","165","1","3.6","0.00","0.00"
"00:59:56","47.7","46.6","96","30.19","165","1.1","3.6","0.00","0.00"
"01:04:58","47.8","46.7","96","30.19","165","0","1.2","0.00","0.00"
"01:09:57","47.7","46.6","96","30.19","165","0.1","1.2","0.00","0.00"
"01:14:58","47.8","46.7","96","30.20","165","0","1.2","0.00","0.00"
"01:19:57","47.7","46.6","96","30.20","165","0","0","0.00","0.00"
"01:24:56","47.7","46.6","96","30.20","165","1","2.4","0.00","0.00"
"01:29:59","47.8","46.7","96","30.20","165","0.3","1.2","0.00","0.00"
"01:34:58","47.8","46.7","96","30.20","165","0.8","2.4","0.00","0.00"
"01:39:58","47.9","46.8","96","30.20","162","2.1","4.8","0.00","0.00"
"01:44:57","47.9","46.8","96","30.20","160","1.4","3.6","0.00","0.00"
"01:49:56","47.9","46.8","96","30.19","160","0.8","2.4","0.00","0.00"
"01:54:59","47.9","46.8","96","30.19","160","0.7","3.6","0.00","0.00"
"01:59:58","47.9","46.8","96","30.19","160","0.1","1.2","0.00","0.00"
"02:04:56","48","46.9","96","30.19","160","0","1.2","0.00","0.00"
"02:09:59","48","46.9","96","30.19","160","0","0","0.00","0.00"
"02:14:56","48","46.9","96","30.20","160","0","0","0.00","0.00"
"02:19:59","48","46.9","96","30.20","160","0.5","2.4","0.00","0.00"
"02:24:58","48.1","47","96.3","30.20","160","0.1","1.2","0.00","0.00"
"02:29:57","48.1","47.2","96.7","30.20","160","0","0","0.00","0.00"
"02:34:59","48.1","47.2","96.6","30.19","160","0.1","1.2","0.00","0.00"
"02:39:56","48.1","47.3","97","30.19","160","0","1.2","0.00","0.00"
"02:44:59","48.1","47.3","97","30.19","160","0.1","1.2","0.00","0.00"
"02:49:58","48.2","47.2","96.3","30.19","160","0.1","1.2","0.00","0.00"
"02:54:57","48.2","47.4","97","30.19","160","0","0","0.00","0.00"
"02:59:56","48.1","47","96","30.19","160","0","0","0.00","0.00"
"03:04:56","48.1","47","96","30.19","160","0","0","0.00","0.00"
"03:09:59","48","46.9","96","30.19","160","0","0","0.00","0.00"
"03:14:56","48","46.9","96","30.19","160","0","0","0.00","0.00"
"03:19:59","48.1","47.1","96.3","30.19","160","0","0","0.00","0.00"
"03:24:58","48.1","47","96.1","30.19","160","0","0","0.00","0.00"
"03:29:57","48.1","47.2","96.8","30.19","160","0","0","0.00","0.00"
"03:34:57","48.1","47.1","96.4","30.18","160","0","0","0.00","0.00"
"03:39:58","48.1","47.2","96.9","30.18","160","0","0","0.00","0.00"
"03:44:56","48","47","96.2","30.18","160","0","0","0.00","0.00"
"03:49:59","48.1","47","96.3","30.17","160","0","0","0.00","0.00"
"03:54:57","48.1","47","96","30.17","160","0","0","0.00","0.00"
"03:59:56","48.1","47","96","30.18","160","0.4","2.4","0.00","0.00"
"04:04:58","48.1","47.2","96.7","30.18","160","0.4","2.4","0.00","0.00"
"04:09:57","48.2","47.4","97","30.18","160","0","0","0.00","0.00"
"04:14:58","48.3","47.5","97","30.18","160","0","0","0.00","0.00"
"04:19:56","48.3","47.5","97","30.17","160","0","0","0.00","0.00"
"04:24:59","48.4","47.6","97","30.17","160","0","1.2","0.00","0.00"
"04:29:59","48.5","47.7","97","30.17","160","0","0","0.00","0.00"
"04:34:57","48.6","47.8","97","30.17","161","0","0","0.00","0.00"
"04:39:58","48.7","47.9","97","30.17","161","0","0","0.00","0.00"
"04:44:57","48.7","47.9","97","30.17","161","0","0","0.00","0.00"
"04:49:59","48.7","47.9","97","30.17","161","0","0","0.00","0.00"
"04:54:58","48.8","48","97","30.17","161","0","0","0.00","0.00"
"04:59:57","48.9","48.1","97","30.17","161","0","0","0.00","0.00"
"05:04:59","48.9","48.1","97","30.17","161","0","0","0.00","0.00"
"05:09:58","48.9","48.1","97","30.17","161","0","0","0.00","0.00"
"05:14:59","48.9","48.1","97","30.18","161","0","0","0.00","0.00"
"05:19:58","48.9","48.1","97","30.18","161","0","0","0.00","0.00"
"05:24:56","49","48.2","97","30.18","161","0","0","0.00","0.00"
"05:29:59","49","48.2","97","30.18","160","0","0","0.00","0.00"
"05:34:58","49","48.2","97","30.17","160","0","0","0.00","0.00"
"05:39:59","49","48.2","97","30.17","160","0","0","0.00","0.00"
"05:44:57","49","48.2","97","30.19","160","0","0","0.00","0.00"
"05:49:56","49","48.2","97","30.19","160","0","0","0.00","0.00"
"05:54:59","49","48.2","97","30.19","161","0","0","0.00","0.00"
"05:59:58","49","48.2","97","30.19","161","0","0","0.00","0.00"
"06:04:56","49","48.2","97","30.19","160","0.3","4.8","0.00","0.00"
"06:09:56","49","48.2","97","30.19","160","1.7","4.6","0.00","0.00"
"06:14:56","48.9","48.1","97","30.19","125","1.9","3.6","0.00","0.00"
"06:19:59","48.7","47.9","97","30.19","29","0.6","2.4","0.00","0.00"
"06:24:57","48.6","47.8","97","30.19","29","0.5","2.4","0.00","0.00"
"06:29:57","48.5","47.7","97","30.19","29","0.1","1.2","0.00","0.00"
"06:34:56","48.5","47.7","97","30.18","29","0","0","0.00","0.00"
"06:39:57","48.5","47.7","97","30.18","30","0.6","3.6","0.00","0.00"
"06:44:59","48.6","47.8","97","30.18","35","1.8","3.5","0.00","0.00"
"06:49:57","48.7","47.9","97","30.16","36","1.7","3.6","0.00","0.00"
"06:54:56","48.7","47.9","97","30.16","35","1.9","3.6","0.00","0.00"
"06:59:59","48.7","47.9","97","30.20","2","2.3","4.8","0.00","0.00"
"07:04:57","48.7","47.9","97","30.20","272","1.4","4.6","0.00","0.00"
"07:09:56","48.6","47.8","97","30.20","272","1.3","3.6","0.00","0.00"
"07:14:57","48.5","47.7","97","30.20","272","0.5","2.4","0.00","0.00"
"07:19:59","48.4","47.6","97","30.20","272","1.1","3.6","0.00","0.00"
"07:24:58","48.2","47.4","97","30.20","275","1.3","4.8","0.00","0.00"
"07:29:57","48.1","47.3","97","30.20","279","0.6","4.6","0.00","0.00"
"07:34:58","48","47.2","97","30.20","279","0.1","1.2","0.00","0.00"
"07:39:59","48","47.2","97","30.20","279","0","1.2","0.00","0.00"
"07:44:58","48","47.2","97","30.20","279","1.4","3.6","0.00","0.00"
"07:49:57","48","47.2","97","30.20","279","0.4","2.4","0.00","0.00"
"07:54:59","48","47.2","97","30.20","279","0.7","2.4","0.00","0.00"
"07:59:59","48","47.2","97","30.20","279","0.8","2.4","0.00","0.00"
"08:04:57","48","47.2","97","30.20","279","1.4","3.6","0.01","0.01"
"08:09:56","48","47.2","97","30.20","279","0.6","2.4","0.01","0.01"
"08:14:56","48","47.3","97.3","30.20","279","0","0","0.01","0.01"
"08:19:58","48.1","47.6","98","30.19","279","0","0","0.01","0.01"
"08:24:57","48.3","47.8","98","30.19","279","0","0","0.01","0.01"
"08:29:56","48.3","47.8","98","30.20","279","0","0","0.01","0.01"
"08:34:58","48.5","48","98","30.20","279","0","0","0.01","0.01"
"08:39:59","48.5","47.9","97.4","30.20","279","0","0","0.01","0.01"
"08:44:57","48.5","47.8","97.2","30.20","279","0","0","0.01","0.01"
"08:49:56","48.5","47.7","97","30.20","279","0","0","0.02","0.02"
"08:54:58","48.5","47.7","97","30.20","279","0","0","0.02","0.02"
"08:59:57","48.6","47.8","97.2","30.20","279","0","0","0.03","0.03"
"09:04:59","48.6","47.9","97.4","30.20","279","0","0","0.04","0.04"
"09:09:58","48.6","48.1","97.9","30.20","279","0","0","0.05","0.03"
"09:14:59","48.7","48.2","98","30.20","279","0","0","0.05","0.04"
"09:19:57","48.8","48.3","98","30.20","279","0","0","0.05","0.04"
"09:24:56","49","48.5","98","30.20","279","0","0","0.06","0.05"
"09:29:59","49.1","48.6","98","30.20","279","0","0","0.06","0.05"
"09:34:57","49.3","48.8","98","30.20","279","0","0","0.06","0.05"
"09:39:58","49.4","48.9","98","30.20","279","0","0","0.06","0.05"
"09:44:56","49.5","49","98","30.20","279","0","0","0.06","0.05"
"09:49:59","49.6","49.1","98","30.20","160","1.2","3.6","0.06","0.05"
"09:54:57","49.8","49.3","98","30.20","160","0.7","2.4","0.06","0.04"
"09:59:59","50","49.5","98","30.21","160","1","2.4","0.06","0.04"
"10:04:57","50.2","49.7","98","30.21","176","2.6","4.8","0.06","0.03"
"10:09:59","50.2","49.7","98","30.21","179","1.9","4.6","0.06","0.02"
"10:14:59","50.4","49.9","98","30.21","179","1.9","3.6","0.06","0.01"
"10:19:58","50.5","50","98","30.21","180","1.3","3.6","0.06","0.01"
"10:24:56","50.6","50.1","98","30.21","180","1.8","4.8","0.06","0.01"
"10:29:59","50.7","50.2","98","30.21","177","2.1","6","0.06","0.00"
"10:34:56","50.8","50.3","98","30.21","133","2.1","4.8","0.06","0.00"
"10:39:56","50.8","50.3","98","30.21","134","1.4","4.8","0.06","0.00"
"10:44:59","50.8","50.3","98","30.21","136","1.7","4.6","0.06","0.00"
"10:49:57","51","50.5","98","30.20","136","1","3.6","0.06","0.00"
"10:54:59","51.2","50.7","98","30.20","136","2.3","4.8","0.06","0.00"
"10:59:58","51.2","50.7","98","30.20","136","0.8","3.5","0.06","0.00"
"11:04:56","51.3","50.8","98","30.19","136","0.7","3.6","0.06","0.00"
"11:09:59","51.3","50.6","97.2","30.19","136","0","0","0.06","0.00"
"11:14:59","51.4","50.6","97","30.19","136","0","0","0.06","0.00"
"11:19:58","51.4","50.6","97","30.18","136","0","0","0.06","0.00"
"11:24:56","51.5","50.9","97.5","30.18","137","0.5","3.6","0.06","0.00"
"11:29:59","51.5","50.7","97","30.18","137","1.7","3.6","0.06","0.00"
"11:34:57","51.7","50.9","97.2","30.18","137","1.3","3.6","0.06","0.00"
"11:39:58","51.8","51.2","97.5","30.18","137","1.6","3.6","0.06","0.00"
"11:44:56","51.9","51.1","97","30.18","137","1.1","3.6","0.06","0.00"
"11:49:59","52.1","51.3","97","30.18","137","1.6","3.6","0.06","0.00"
"11:54:57","52.1","51.3","97","30.18","137","0.7","2.4","0.06","0.00"
"11:59:56","52.1","51.3","97","30.18","137","0.9","3.6","0.06","0.00"
"12:04:58","52.3","51.5","97","30.17","137","1.6","3.6","0.06","0.00"
"12:09:57","52.3","51.5","97","30.17","137","0.9","2.4","0.06","0.00"
"12:14:57","52.3","51.5","97","30.17","137","1.8","4.8","0.06","0.00"
"12:19:56","52.3","51.4","96.7","30.16","138","0.8","2.4","0.06","0.00"
"12:24:58","52.4","51.5","96.8","30.16","138","0.3","1.2","0.06","0.00"
"12:29:57","52.4","51.4","96.3","30.17","138","0","0","0.06","0.00"
"12:34:56","52.4","51.6","97","30.17","138","0","0","0.06","0.00"
"12:39:57","52.5","51.7","97","30.17","138","0","0","0.06","0.00"
"12:44:56","52.7","51.8","96.8","30.17","138","0","0","0.06","0.00"
"12:49:56","52.7","51.6","96","30.16","138","0","0","0.06","0.00"
"12:54:56","52.8","51.7","96","30.16","138","0","0","0.06","0.00"
"12:59:59","52.9","51.8","96","30.16","138","0","0","0.06","0.00"
"13:04:57","53","51.9","96","30.15","138","0","0","0.06","0.00"
"13:09:56","53","51.9","96","30.15","138","0","0","0.06","0.00"
"13:14:57","53","51.9","96","30.15","138","0","0","0.06","0.00"
"13:19:56","53.1","52","96","30.14","138","0","0","0.06","0.00"
"13:24:58","53.2","52.1","96","30.14","138","0","0","0.06","0.00"
"13:29:57","53.3","52","95.4","30.14","138","0","0","0.06","0.00"
"13:34:56","53.3","51.9","95","30.13","138","0","0","0.06","0.00"
"13:39:56","53.3","52","95.2","30.13","138","0","0","0.06","0.00"
"13:44:59","53.3","51.9","95","30.13","138","0","0","0.06","0.00"
"13:49:57","53.4","52","95","30.13","137","0","0","0.06","0.00"
"13:54:56","53.5","52.1","95","30.13","137","0","0","0.06","0.00"
"13:59:58","53.6","52.2","95","30.13","137","0","0","0.06","0.00"
"14:04:56","53.7","52.3","95","30.13","137","0","0","0.06","0.00"
"14:09:59","53.7","52.3","95","30.13","137","0","0","0.06","0.00"
"14:14:59","53.7","52.2","94.8","30.13","137","0","0","0.06","0.00"
"14:19:58","53.7","52.3","94.9","30.13","137","0","0","0.06","0.00"
"14:24:56","53.8","52.4","95","30.13","137","0","0","0.06","0.00"
"14:29:59","53.8","52.3","94.5","30.14","138","0","0","0.06","0.00"
"14:34:57","53.8","52.1","94","30.14","138","0","0","0.06","0.00"
"14:39:57","53.8","52.1","94","30.14","138","0","0","0.06","0.00"
"14:44:59","53.8","52.1","94","30.14","138","1","3.6","0.06","0.00"
"14:49:56","53.8","52.1","94","30.13","138","0.9","3.6","0.06","0.00"
"14:54:59","53.8","52.1","94","30.13","138","0.1","2.3","0.06","0.00"
"14:59:57","53.9","52.2","94","30.14","138","0.8","2.4","0.06","0.00"
"15:04:58","53.9","52.2","94","30.14","138","0","2.3","0.06","0.00"
"15:09:57","53.9","52.2","94","30.14","138","0","0","0.06","0.00"
"15:14:57","53.9","52.2","94","30.14","138","0","1.2","0.06","0.00"
"15:19:59","53.9","52.2","94","30.12","138","0","0","0.06","0.00"
"15:24:57","54","52.3","94","30.12","138","0","0","0.06","0.00"
"15:29:59","53.9","52.2","94","30.12","138","0","0","0.06","0.00"
"15:34:57","53.9","52.2","94","30.12","138","0","0","0.06","0.00"
"15:39:58","53.9","52.2","94","30.12","138","0","0","0.06","0.00"
"15:44:56","53.9","52.2","94","30.13","138","0","0","0.06","0.00"
"15:49:59","53.9","52.2","94","30.13","138","0","0","0.06","0.00"
"15:54:57","53.9","52.2","94","30.13","138","0","0","0.06","0.00"
"15:59:56","53.9","52.2","94","30.14","138","0","0","0.06","0.00"
"16:04:58","53.9","52.2","94","30.14","138","0","0","0.06","0.00"
"16:09:57","53.9","52.2","94","30.14","138","0.5","4.8","0.06","0.00"
"16:14:57","53.9","52.2","94","30.15","139","1.1","4.6","0.06","0.00"
"16:19:59","53.8","52.1","94","30.15","139","0.7","2.4","0.06","0.00"
"16:24:58","53.7","52","94","30.15","139","0.1","1.2","0.06","0.00"
"16:29:56","53.7","52.1","94.2","30.15","139","0.6","2.4","0.06","0.00"
"16:34:58","53.7","52.2","94.7","30.14","139","0.4","2.4","0.06","0.00"
"16:39:58","53.6","52.1","94.5","30.14","139","0.8","2.4","0.06","0.00"
"16:44:56","53.6","52","94.5","30.15","139","0.5","2.4","0.06","0.00"
"16:49:58","53.5","52.1","95","30.15","139","0.3","2.3","0.06","0.00"
"16:54:56","53.5","52.1","95","30.15","139","0.5","2.4","0.06","0.00"
"16:59:59","53.4","52","95","30.15","139","0.1","2.4","0.06","0.00"
"17:04:57","53.3","51.9","95","30.15","139","0","2.4","0.06","0.00"
"17:09:56","53.3","51.9","95","30.15","139","0.8","2.4","0.06","0.00"
"17:14:56","53.2","51.8","95","30.15","139","1.1","2.4","0.06","0.00"
"17:19:58","53.2","51.8","95","30.15","139","1","2.4","0.06","0.00"
"17:24:56","53.1","51.7","95","30.15","139","1","3.6","0.06","0.00"
"17:29:59","53.1","51.7","95","30.15","139","1.2","3.6","0.06","0.00"
"17:34:57","53","51.6","95.1","30.15","139","1","2.4","0.06","0.00"
"17:39:57","53","51.9","96","30.15","139","1.8","4.8","0.06","0.00"
"17:44:59","53.1","52","96","30.15","140","1.4","2.4","0.06","0.00"
"17:49:57","53.1","52","96","30.15","140","1.7","3.6","0.06","0.00"
"17:54:59","53.2","52.1","96","30.15","140","1.3","3.6","0.06","0.00"
"17:59:58","53.2","52.1","96","30.16","140","1.4","3.6","0.06","0.00"
"18:04:56","53.1","52","96","30.16","140","1.5","3.6","0.06","0.00"
"18:09:59","53.1","52","96","30.16","140","1.4","4.8","0.06","0.00"
"18:14:59","53.1","52","96","30.16","142","2.2","4.6","0.06","0.00"
"18:19:57","53","51.9","96","30.16","142","1.2","2.4","0.06","0.00"
"18:24:59","53","51.9","96","30.16","142","1.4","4.8","0.06","0.00"
"18:29:58","53","51.9","96","30.16","142","1.7","3.5","0.06","0.00"
"18:34:56","53","51.9","96","30.16","142","0.4","2.4","0.06","0.00"
"18:39:56","52.9","51.8","96","30.16","142","0.9","2.4","0.06","0.00"
"18:44:58","52.9","51.8","96","30.16","142","1.1","3.6","0.06","0.00"
"18:49:56","52.9","51.8","96","30.16","142","0.1","1.2","0.06","0.00"
"18:54:56","52.8","51.7","96","30.16","142","0.4","2.4","0.06","0.00"
"18:59:56","52.8","51.8","96.2","30.16","142","0.5","2.4","0.06","0.00"
"19:04:58","52.8","52","97","30.16","142","0","1.2","0.06","0.00"
"19:09:57","52.7","51.9","97","30.16","142","0.1","1.2","0.06","0.00"
"19:14:58","52.7","51.9","97","30.17","142","0.4","2.4","0.06","0.00"
"19:19:56","52.7","51.9","97","30.17","142","0.2","1.2","0.06","0.00"
"19:24:58","52.7","51.9","97","30.17","142","0.4","1.2","0.06","0.00"
"19:29:57","52.6","51.8","97","30.17","142","0","1.2","0.06","0.00"
"19:34:59","52.5","51.7","97","30.17","142","0","0","0.06","0.00"
"19:39:56","52.5","51.7","97","30.17","142","0","1.2","0.06","0.00"
"19:44:59","52.4","51.6","97","30.17","142","0.5","2.4","0.06","0.00"
"19:49:57","52.3","51.5","97","30.17","142","0","1.2","0.06","0.00"
"19:54:59","52.3","51.5","97","30.17","142","0.3","2.4","0.06","0.00"
"19:59:57","52.3","51.5","97","30.18","142","0.1","2.3","0.06","0.00"
"20:04:59","52.3","51.5","97","30.18","142","0","0","0.06","0.00"
"20:09:58","52.2","51.4","97","30.18","142","0","0","0.06","0.00"
"20:14:59","52.1","51.3","97","30.18","142","0.1","1.2","0.06","0.00"
"20:19:57","52.1","51.3","97","30.18","142","0.3","2.4","0.06","0.00"
"20:24:59","52.2","51.4","97","30.18","142","1","2.4","0.06","0.00"
"20:29:58","52.2","51.4","97","30.19","142","1.7","4.8","0.06","0.00"
"20:34:58","52.2","51.4","97","30.19","115","0.6","3.6","0.06","0.00"
"20:39:58","52.2","51.4","97","30.19","343","2.4","6","0.06","0.00"
"20:44:56","52.1","51.3","97","30.20","342","0.6","4.6","0.06","0.00"
"20:49:58","52.1","51.3","97","30.20","342","1.8","4.8","0.06","0.00"
"20:54:56","52.1","51.3","97","30.20","340","2.1","6","0.06","0.00"
"20:59:58","52","51.2","97","30.20","340","0.7","3.6","0.06","0.00"
"21:04:57","52","51.2","97","30.20","340","0.2","2.4","0.06","0.00"
"21:09:56","51.9","51.1","97","30.20","340","0.1","2.4","0.06","0.00"
"21:14:56","51.9","51.1","97","30.20","340","0.6","2.4","0.06","0.00"
"21:19:58","51.9","51.1","97","30.20","340","0.2","2.3","0.06","0.00"
"21:24:56","51.8","51","97","30.20","340","0","1.2","0.06","0.00"
"21:29:59","51.8","51","97","30.20","340","0.1","1.2","0.06","0.00"
"21:34:57","51.7","50.9","97","30.20","340","0","0","0.06","0.00"
"21:39:58","51.7","50.9","97","30.20","340","0","0","0.06","0.00"
"21:44:56","51.6","50.8","97","30.20","340","0","0","0.06","0.00"
"21:49:58","51.6","50.8","97","30.20","340","0","0","0.06","0.00"
"21:54:56","51.5","50.7","97","30.20","340","0","0","0.06","0.00"
"21:59:58","51.4","50.6","97","30.21","340","0.4","2.4","0.06","0.00"
"22:04:57","51.4","50.6","97","30.21","340","0.8","3.6","0.06","0.00"
"22:09:56","51.3","50.5","97","30.21","340","1.3","4.8","0.06","0.00"
"22:14:56","51.2","50.4","97","30.21","340","1.9","4.6","0.06","0.00"
"22:19:58","51.1","50.3","97","30.20","340","1.9","3.6","0.06","0.00"
"22:24:56","51","50.2","97","30.20","339","1.8","4.8","0.06","0.00"
"22:29:58","50.9","50.1","97","30.20","340","2.6","4.8","0.06","0.00"
"22:34:56","50.8","50","97","30.20","340","1.7","4.8","0.06","0.00"
"22:39:56","50.7","49.9","97","30.20","340","1.7","4.8","0.06","0.00"
"22:44:59","50.7","49.9","97","30.21","338","1.7","6","0.06","0.00"
"22:49:57","50.6","49.8","97","30.21","338","0.6","2.4","0.06","0.00"
"22:54:59","50.5","49.9","97.8","30.21","338","0.3","2.4","0.06","0.00"
"22:59:57","50.4","49.6","97","30.21","338","0.2","3.6","0.06","0.00"
"23:04:59","50.2","49.4","97","30.21","338","1.8","3.6","0.06","0.00"
"23:09:58","50","49.2","97","30.21","338","0.8","3.6","0.06","0.00"
"23:14:58","49.9","49.1","97","30.21","338","1.1","3.6","0.06","0.00"
"23:19:56","49.7","48.9","97","30.21","338","0.5","3.5","0.06","0.00"
"23:24:58","49.6","48.8","97","30.21","338","0","0","0.06","0.00"
"23:29:56","49.6","48.8","97","30.21","338","0.1","1.2","0.06","0.00"
"23:34:59","49.4","48.6","97","30.21","338","0","1.2","0.06","0.00"
"23:39:59","49.2","48.4","97","30.21","338","0.3","2.4","0.06","0.00"
"23:44:57","48.9","48.1","97","30.21","338","1.3","2.4","0.06","0.00"
"23:49:55","48.7","47.9","97","30.21","338","0.7","2.4","0.06","0.00"
